Temp
64 64 64 64 64 64 64 64 65 66 65 65 65 65 65 64 64 61 56 63 67 72 72 69 68 66 65 60 62 61 46 43 48 52 55 66 62 70 71 68 68 68 67 72 76
64 64 64 63 63 63 63 63 64 64 65 65 65 64 64 64 59 56 67 72 74 74 66 63 61 63 55 57 58 53 46 48 57 59 58 64 61 65 64 64 61 67 70 74 75
63 63 64 63 63 63 63 62 62 63 63 65 64 64 64 63 54 56 72 73 74 74 68 66 64 62 54 55 54 53 46 56 60 64 63 61 62 64 61 57 64 65 67 69 71
63 63 63 63 62 62 63 62 62 63 63 63 64 64 63 59 42 62 73 74 74 71 66 63 60 54 52 51 57 49 56 59 62 64 62 58 62 59 58 60 66 66 69 70 69
62 62 62 62 61 61 62 62 62 62 63 63 63 63 59 51 54 67 71 74 71 66 61 59 54 55 50 52 55 51 55 61 62 61 61 62 57 57 58 63 67 67 67 66 68
61 61 60 61 61 61 61 61 62 62 61 61 62 63 53 44 67 69 67 66 66 63 60 60 57 59 54 53 52 56 56 56 59 58 59 58 57 56 58 64 63 65 65 63 66
59 60 60 60 60 60 60 61 60 61 61 61 62 60 53 52 67 68 70 66 67 65 59 62 62 57 56 52 57 55 49 53 54 56 55 59 51 52 60 61 61 60 61 66 65
60 58 59 59 58 59 59 59 59 59 60 60 61 58 47 67 67 67 66 65 68 67 66 67 64 60 57 56 54 49 47 39 52 56 57 56 44 55 60 57 58 61 63 63 66
59 58 58 59 58 58 58 58 59 59 60 60 56 53 47 66 60 65 65 62 64 67 65 67 60 54 56 48 45 45 35 40 46 57 56 52 44 57 60 59 55 57 61 63 65
58 58 56 58 58 57 57 57 58 58 57 58 57 47 53 53 61 64 65 65 60 59 58 56 53 46 46 44 34 37 37 39 42 52 52 49 47 53 58 56 55 55 56 57 60
57 57 58 58 57 57 53 48 44 43 49 47 48 50 56 61 65 60 64 62 59 53 44 52 44 40 41 44 45 47 45 41 46 53 47 46 46 50 55 54 57 59 56 58 62
57 58 58 57 57 56 50 43 44 45 39 52 52 54 60 62 52 57 64 53 49 43 47 44 40 50 53 51 49 44 41 39 45 50 46 45 44 50 52 54 57 57 54 56 61
58 58 57 56 56 51 46 46 50 51 38 45 50 52 54 58 51 52 59 54 47 44 45 39 46 53 50 47 46 43 37 37 39 44 44 41 38 43 50 53 56 59 61 61 61
57 57 57 56 49 48 45 50 51 49 32 38 44 51 56 56 48 59 61 55 51 45 46 46 50 49 46 44 45 36 46 45 43 36 28 40 25 35 46 50 52 51 52 58 60
57 57 57 56 47 45 50 49 51 45 21 39 44 60 55 49 50 51 60 57 45 45 45 40 45 45 42 44 47 41 47 43 41 34 31 32 26 33 41 44 48 51 52 53 55
57 56 56 50 49 51 52 50 46 29 21 36 44 45 43 48 49 51 53 56 55 48 48 45 52 47 45 48 47 48 42 39 37 33 20 30 29 29 39 45 48 48 54 55 54
56 56 53 53 45 53 50 43 27 23 35 34 38 44 43 43 44 45 44 41 37 33 33 43 44 48 49 41 44 44 33 18 22 24 20 35 29 33 46 51 52 53 54 53 57
55 54 51 53 51 52 44 33 19 33 33 42 43 44 38 43 42 43 41 34 41 39 30 27 25 41 46 41 37 37 35 20 17 18 23 36 28 37 50 56 54 58 56 58 55
54 46 48 48 52 47 40 24 28 33 39 38 40 35 35 42 41 41 40 37 41 41 31 28 32 47 48 48 45 36 26 37 25 26 17 28 35 45 51 50 50 50 52 53 49
45 44 46 50 50 45 35 31 32 39 44 44 33 38 33 38 36 36 38 43 44 46 44 40 32 43 47 50 47 40 42 28 23 12 16 24 28 35 41 44 49 49 49 49 50
41 40 47 50 49 40 29 33 34 45 47 44 40 39 39 38 38 38 37 45 47 45 48 45 39 35 43 37 35 36 37 38 31 27 20 20 27 41 44 44 45 47 49 49 51
39 32 46 48 34 37 35 39 38 40 47 46 46 42 40 41 39 40 36 42 49 49 40 46 38 28 31 41 44 40 36 33 21 22 24 24 29 50 51 50 50 53 56 58 55
36 36 49 47 32 34 39 39 40 44 48 48 44 46 46 41 35 43 41 47 51 48 45 44 31 19 27 33 39 35 39 39 35 32 23 25 30 48 50 51 53 53 53 55 55
37 29 37 42 42 36 37 36 37 48 48 49 47 49 46 43 44 40 40 45 48 48 51 47 35 27 22 29 34 27 34 37 34 28 29 31 35 43 46 49 51 51 50 52 55
42 34 39 31 38 40 41 41 41 42 49 51 48 48 46 41 42 40 42 41 45 47 44 40 25 29 34 36 32 33 34 36 33 35 30 35 37 43 46 47 48 50 48 51 50
39 39 41 36 44 41 41 40 42 43 45 43 43 45 45 42 40 41 42 40 38 40 39 40 27 28 26 36 36 32 37 37 37 38 37 38 36 48 51 51 48 46 47 47 47
45 46 42 40 40 40 38 43 43 44 47 47 47 44 41 43 44 43 45 45 45 39 38 37 30 24 19 34 34 31 37 39 40 42 41 36 42 49 47 47 45 43 44 45 46
MSLP
1017.45 1017.08 1016.76 1016.34 1015.88 1015.43 1015.02 1014.58 1014.21 1013.87 1013.87 1013.94 1014.02 1014.05 1014.07 1013.90 1013.89 1013.63 1013.10 1012.42 1012.45 1012.26 1012.41 1012.67 1012.78 1012.94 1013.11 1013.41 1013.16 1013.06 1013.90 1013.74 1013.09 1012.52 1011.38 1009.94 1009.53 1008.65 1007.86 1007.73 1007.86 1008.24 1008.76 1008.83 1009.07
1017.26 1016.96 1016.54 1016.18 1015.80 1015.34 1014.96 1014.57 1014.17 1013.70 1013.56 1013.62 1013.71 1013.82 1013.89 1013.79 1013.82 1012.91 1011.94 1011.71 1011.65 1012.00 1012.38 1012.62 1012.79 1012.95 1013.34 1013.21 1013.21 1013.10 1013.28 1012.94 1012.30 1011.94 1011.26 1010.43 1009.82 1009.25 1008.33 1008.29 1008.41 1008.64 1009.07 1008.99 1008.99
1016.96 1016.70 1016.30 1015.95 1015.72 1015.30 1014.97 1014.65 1014.21 1013.64 1012.99 1013.13 1013.45 1013.54 1013.67 1013.64 1013.20 1011.10 1010.34 1011.07 1011.28 1011.68 1012.04 1012.48 1012.77 1012.99 1013.42 1013.25 1013.08 1012.62 1012.78 1012.53 1012.08 1011.37 1011.15 1010.65 1010.01 1009.79 1009.51 1009.19 1008.82 1008.87 1009.48 1009.60 1009.08
1016.73 1016.32 1016.00 1015.64 1015.44 1015.11 1014.73 1014.54 1014.09 1013.54 1013.11 1012.79 1013.18 1013.25 1013.37 1013.57 1012.60 1010.43 1009.95 1010.58 1010.91 1011.61 1012.08 1012.44 1012.79 1013.09 1013.16 1013.10 1012.77 1012.76 1012.33 1012.31 1011.81 1011.30 1011.18 1010.74 1010.49 1010.18 1010.16 1009.89 1009.69 1009.36 1009.38 1009.64 1009.96
1016.36 1015.94 1015.61 1015.44 1015.15 1014.87 1014.49 1014.18 1013.95 1013.48 1012.95 1012.52 1012.63 1013.07 1013.35 1013.00 1011.24 1010.28 1009.99 1010.13 1010.92 1011.62 1011.91 1012.30 1012.50 1012.78 1012.62 1012.71 1012.70 1012.53 1012.28 1011.95 1011.59 1011.20 1011.09 1010.73 1010.65 1010.67 1010.11 1009.92 1009.38 1009.29 1009.47 1009.68 1009.73
1016.00 1015.71 1015.50 1015.12 1014.81 1014.50 1014.25 1013.95 1013.54 1013.18 1012.98 1012.50 1012.35 1012.80 1013.10 1012.00 1010.05 1010.11 1010.24 1010.65 1010.98 1011.45 1011.82 1012.16 1012.05 1012.10 1012.32 1012.38 1012.71 1011.92 1011.99 1011.94 1011.59 1011.30 1011.20 1011.04 1010.70 1010.86 1010.25 1009.80 1009.90 1009.69 1009.31 1009.68 1009.89
1015.89 1015.36 1014.96 1014.69 1014.45 1014.14 1013.80 1013.51 1013.26 1012.89 1012.54 1012.34 1012.00 1012.44 1012.23 1010.73 1009.83 1009.87 1010.11 1010.40 1010.69 1011.02 1011.39 1011.67 1011.91 1011.89 1012.09 1012.21 1012.15 1012.01 1012.19 1012.09 1011.86 1011.56 1011.23 1011.07 1010.65 1010.61 1010.43 1010.19 1010.24 1010.08 1009.77 1008.94 1009.51
1015.21 1015.19 1014.70 1014.32 1014.21 1013.86 1013.48 1013.14 1012.95 1012.55 1012.18 1011.83 1011.63 1011.97 1011.35 1009.97 1009.92 1010.10 1010.23 1010.32 1010.31 1010.50 1010.92 1011.27 1011.93 1011.88 1012.02 1012.22 1012.24 1012.31 1012.68 1012.83 1011.77 1011.26 1010.87 1011.45 1010.14 1010.50 1010.04 1010.27 1010.41 1009.86 1009.64 1009.28 1008.56
1015.09 1014.70 1014.33 1013.94 1013.82 1013.60 1013.28 1012.86 1012.39 1011.98 1011.66 1011.30 1010.99 1011.39 1010.92 1009.49 1009.65 1009.68 1009.96 1010.07 1010.22 1010.44 1010.69 1011.30 1012.05 1012.35 1012.43 1012.66 1012.98 1012.96 1013.35 1012.98 1012.16 1010.73 1010.62 1010.84 1010.50 1010.03 1009.86 1009.87 1010.01 1009.54 1009.13 1008.76 1008.32
1014.79 1014.43 1014.16 1013.65 1013.30 1013.22 1013.03 1012.44 1011.60 1011.55 1011.23 1010.98 1010.41 1011.56 1010.32 1009.20 1009.17 1009.43 1009.70 1010.03 1010.32 1010.71 1011.07 1011.68 1012.37 1012.72 1012.79 1013.13 1013.22 1013.20 1013.29 1012.91 1012.40 1011.14 1010.59 1010.72 1010.69 1010.20 1009.57 1009.48 1009.25 1009.08 1008.64 1008.37 1008.05
1014.49 1014.13 1013.66 1013.19 1013.16 1013.00 1012.92 1012.36 1011.77 1011.69 1010.90 1009.72 1009.86 1009.11 1007.83 1008.57 1008.84 1009.36 1009.56 1009.91 1010.46 1011.12 1011.57 1011.90 1012.50 1012.65 1012.80 1012.93 1012.83 1013.13 1013.32 1013.28 1012.34 1011.84 1011.53 1011.49 1011.11 1010.48 1009.63 1009.24 1008.76 1008.33 1008.15 1007.63 1007.10
1014.19 1013.71 1013.27 1013.07 1012.92 1012.70 1012.81 1012.75 1012.47 1012.80 1011.53 1009.57 1009.51 1009.02 1008.08 1008.32 1008.97 1009.50 1009.60 1010.14 1010.73 1011.44 1011.73 1012.35 1012.20 1012.27 1012.54 1012.67 1012.92 1013.50 1013.71 1013.37 1012.50 1012.11 1012.33 1011.99 1010.63 1010.07 1009.25 1007.99 1007.73 1007.28 1007.48 1006.98 1006.58
1013.68 1013.35 1013.11 1012.83 1012.63 1012.47 1012.17 1012.11 1012.20 1012.08 1011.98 1009.83 1009.46 1008.93 1008.51 1008.67 1008.88 1009.32 1009.61 1009.99 1010.75 1011.58 1011.82 1012.12 1012.08 1011.98 1012.53 1012.78 1013.15 1013.42 1013.69 1013.72 1013.83 1013.21 1013.08 1012.80 1010.85 1009.32 1007.73 1006.82 1006.41 1006.27 1006.06 1006.17 1006.10
1013.38 1013.06 1012.71 1012.49 1012.50 1012.08 1011.84 1011.49 1011.95 1012.25 1012.01 1010.00 1008.85 1008.09 1008.24 1008.48 1009.20 1009.49 1009.77 1010.07 1010.74 1011.39 1011.92 1012.16 1012.00 1012.02 1012.41 1012.83 1013.23 1013.71 1013.93 1014.28 1014.62 1014.90 1015.20 1014.55 1013.26 1010.11 1007.91 1006.76 1006.21 1005.64 1005.61 1005.48 1005.41
1012.89 1012.57 1012.16 1011.94 1012.02 1011.83 1011.61 1011.77 1011.92 1012.45 1010.97 1009.56 1008.48 1007.56 1008.05 1008.74 1009.18 1009.85 1009.85 1009.99 1010.60 1010.99 1011.88 1012.39 1012.10 1012.38 1012.78 1013.01 1013.36 1014.10 1014.35 1014.87 1015.46 1016.01 1016.16 1015.32 1015.12 1010.11 1008.19 1007.12 1006.13 1005.71 1005.34 1004.99 1004.64
1012.43 1011.99 1011.48 1011.00 1010.86 1010.58 1011.11 1011.57 1011.91 1011.84 1009.53 1008.41 1007.98 1007.86 1008.79 1009.18 1009.33 1009.91 1010.34 1010.48 1010.57 1011.22 1012.01 1012.48 1012.32 1012.70 1012.99 1013.22 1013.56 1014.32 1014.97 1015.64 1016.32 1017.02 1016.94 1014.90 1014.41 1010.48 1008.26 1006.66 1006.01 1005.28 1004.89 1004.51 1004.65
1011.94 1011.30 1010.87 1010.51 1010.28 1010.12 1010.97 1011.76 1011.87 1010.55 1009.04 1008.68 1007.86 1008.33 1009.00 1009.46 1009.99 1010.37 1010.67 1010.98 1011.06 1012.07 1012.67 1012.83 1013.05 1013.12 1013.24 1013.65 1014.06 1014.74 1015.94 1017.29 1017.81 1018.06 1016.61 1014.75 1014.19 1009.71 1007.48 1005.95 1005.51 1005.11 1004.62 1004.61 1004.59
1011.33 1010.73 1010.27 1010.13 1010.11 1010.44 1011.08 1011.47 1011.32 1009.38 1008.55 1007.99 1008.17 1008.90 1009.23 1009.70 1010.68 1010.96 1011.30 1011.54 1011.65 1012.02 1012.97 1013.47 1013.75 1013.29 1013.34 1013.72 1014.21 1015.21 1016.06 1017.41 1017.79 1018.15 1016.68 1014.74 1012.24 1008.47 1006.44 1005.31 1004.98 1004.46 1004.25 1004.11 1004.39
1010.25 1010.50 1010.55 1010.63 1010.41 1011.01 1011.39 1011.08 1010.55 1009.35 1008.34 1007.84 1008.71 1009.24 1009.61 1009.91 1010.58 1011.24 1011.61 1011.86 1011.89 1012.16 1012.72 1013.46 1013.40 1012.88 1013.27 1013.57 1014.20 1015.26 1016.01 1016.80 1017.66 1017.75 1017.41 1014.25 1010.84 1007.87 1006.03 1005.61 1005.23 1005.31 1005.00 1004.94 1004.82
1010.58 1011.02 1011.36 1011.17 1011.18 1011.47 1011.48 1010.81 1010.51 1009.28 1008.18 1008.09 1008.23 1008.64 1009.14 1009.88 1010.53 1011.06 1011.57 1011.62 1011.71 1011.84 1012.17 1012.61 1013.12 1013.42 1013.49 1013.71 1014.23 1014.82 1015.70 1016.91 1017.97 1018.39 1017.02 1013.86 1011.24 1008.38 1006.67 1006.05 1005.55 1005.62 1005.51 1005.30 1005.15
1011.42 1011.64 1012.15 1011.86 1011.60 1011.96 1011.51 1010.83 1010.67 1008.96 1008.40 1007.76 1007.65 1008.05 1008.81 1009.68 1010.22 1010.84 1011.35 1010.89 1011.13 1011.48 1012.06 1012.33 1012.98 1014.53 1014.20 1014.11 1014.38 1015.00 1015.44 1016.26 1017.20 1017.54 1016.95 1014.65 1010.49 1007.31 1006.48 1006.06 1005.92 1005.74 1005.45 1005.74 1005.61
1012.02 1012.94 1012.59 1012.20 1012.29 1012.11 1011.36 1010.67 1010.73 1009.50 1008.36 1007.50 1007.24 1007.71 1008.67 1009.42 1010.08 1010.34 1010.79 1010.61 1010.59 1011.01 1011.92 1012.56 1013.60 1014.80 1014.78 1014.41 1014.43 1014.85 1015.32 1016.09 1016.96 1016.92 1016.40 1014.78 1010.08 1007.28 1006.52 1005.90 1005.52 1005.31 1005.05 1004.90 1004.61
1012.75 1013.10 1012.68 1012.80 1012.59 1012.02 1011.16 1010.48 1010.19 1008.81 1007.53 1007.11 1007.05 1007.30 1008.23 1008.94 1009.84 1010.18 1010.62 1010.62 1010.53 1011.02 1011.64 1012.55 1013.90 1015.41 1015.46 1015.17 1014.72 1014.85 1015.00 1015.38 1015.91 1016.22 1015.37 1014.59 1009.83 1007.04 1006.35 1006.22 1005.98 1005.39 1005.20 1004.98 1004.52
1012.96 1013.36 1013.12 1012.66 1012.10 1011.87 1011.27 1010.29 1009.71 1008.29 1007.38 1006.78 1007.00 1007.60 1008.37 1008.87 1009.21 1010.31 1010.80 1011.03 1010.96 1011.33 1011.72 1012.62 1014.11 1015.02 1015.20 1014.77 1014.54 1014.69 1014.52 1014.77 1015.30 1015.43 1013.75 1011.54 1009.53 1007.46 1006.86 1006.03 1005.62 1005.26 1005.22 1004.59 1003.94
1012.76 1013.27 1012.80 1012.56 1011.96 1011.26 1010.71 1010.09 1009.31 1008.31 1007.68 1007.42 1007.79 1008.04 1008.23 1008.95 1009.48 1010.24 1010.83 1011.40 1011.71 1011.96 1012.45 1013.31 1014.68 1015.15 1015.01 1014.72 1014.57 1014.17 1013.97 1014.01 1014.03 1013.19 1013.29 1009.83 1009.54 1007.64 1006.78 1006.16 1005.63 1005.07 1004.93 1004.33 1003.85
1013.65 1013.44 1012.95 1012.29 1011.88 1011.17 1010.76 1010.13 1009.46 1008.88 1008.35 1008.24 1008.23 1008.58 1008.75 1009.47 1009.84 1010.14 1010.69 1011.30 1011.74 1012.48 1013.06 1013.86 1015.00 1015.25 1015.07 1014.03 1013.65 1013.28 1012.48 1012.29 1012.20 1011.77 1011.41 1010.36 1008.66 1007.31 1006.43 1006.02 1005.70 1005.50 1005.31 1005.22 1004.94
1014.07 1013.76 1013.43 1012.25 1011.68 1011.19 1010.48 1009.96 1009.67 1009.20 1009.10 1009.07 1009.02 1009.22 1009.67 1010.11 1010.15 1010.44 1010.69 1011.00 1011.40 1012.24 1013.24 1014.15 1014.92 1015.44 1014.94 1013.53 1012.70 1011.59 1010.10 1010.19 1009.88 1009.72 1009.68 1008.90 1007.45 1006.67 1006.10 1006.03 1006.25 1006.39 1006.14 1005.61 1005.36
Wind_Speed
18 18 18 19 18 19 18 19 20 13 11 10 10 10 10 9 11 7 9 9 16 15 1 3 4 6 4 4 3 3 2 5 8 8 6 12 5 4 1 5 4 2 5 7 10
18 18 19 18 19 18 20 19 20 18 13 11 10 9 9 7 7 13 8 16 16 16 6 5 6 6 2 4 4 6 6 7 5 10 6 6 4 7 3 3 1 5 3 6 8
18 20 20 17 19 19 17 19 21 21 14 11 10 8 7 5 4 7 21 20 18 10 5 4 6 4 6 4 6 5 5 4 10 11 2 4 7 5 5 1 6 6 7 5 8
20 19 19 19 18 20 20 18 20 19 20 14 10 7 4 4 6 0 3 23 17 8 5 4 5 3 7 8 6 6 4 13 13 13 4 3 5 7 2 4 8 3 3 5 8
21 20 19 20 17 19 19 18 20 19 19 12 9 7 2 5 7 3 4 21 10 6 8 8 4 5 6 6 6 5 7 11 9 8 5 3 4 5 8 8 11 9 5 4 6
22 21 20 20 20 19 18 18 20 18 20 19 11 7 3 6 4 7 7 7 7 8 8 6 5 8 4 6 5 3 2 3 5 7 5 7 6 2 3 8 12 12 12 6 7
20 22 20 19 18 19 20 18 19 19 16 20 13 7 6 10 4 5 2 7 9 10 7 9 1 4 4 2 3 3 4 7 6 6 6 7 7 8 9 9 13 13 12 16 9
20 19 21 19 17 18 19 17 18 20 16 21 18 7 6 6 10 4 4 4 4 4 13 6 0 1 2 2 2 4 3 2 7 10 9 10 11 6 11 8 13 19 17 14 18
20 18 18 18 16 17 17 19 20 19 16 19 10 6 6 6 9 9 6 5 5 2 2 10 5 0 2 4 2 2 3 5 8 9 6 12 2 14 9 11 10 12 17 16 17
18 17 17 17 19 13 15 18 19 14 10 9 4 4 5 9 6 8 6 6 4 5 5 5 3 4 2 4 6 5 4 4 6 5 2 5 9 8 10 7 10 10 10 10 10
18 16 18 15 13 12 8 5 4 3 6 5 9 4 1 7 7 11 7 7 5 3 5 4 4 6 9 6 4 5 6 5 4 5 2 6 9 10 11 10 17 17 12 13 15
19 18 16 15 13 12 4 3 1 3 6 12 9 14 10 11 8 10 7 6 6 6 5 4 2 5 8 9 10 4 7 6 6 5 4 11 21 17 18 19 19 19 12 13 14
20 17 16 17 11 8 5 6 8 8 4 9 6 15 8 4 6 13 10 7 8 6 6 6 2 7 5 2 7 2 4 3 5 7 6 8 11 8 8 14 19 19 19 15 17
19 19 18 17 11 2 3 5 9 10 3 11 7 9 6 5 5 6 6 6 5 9 7 1 1 3 4 3 3 0 4 5 4 4 4 6 10 8 9 10 6 10 10 16 16
19 19 23 17 4 3 1 9 7 5 5 14 10 9 7 2 14 8 2 1 6 6 6 6 3 5 3 2 5 3 6 5 4 3 5 3 2 10 6 6 6 7 9 10 12
20 23 24 8 3 8 6 8 1 2 5 6 8 11 9 10 3 8 4 1 2 5 5 4 3 4 6 2 4 5 4 3 3 2 3 9 7 6 3 4 3 3 6 7 4
24 24 20 5 2 6 8 4 4 3 2 6 9 16 12 9 7 9 9 5 5 6 2 2 2 3 3 4 2 4 6 3 2 2 8 2 4 8 9 11 7 9 7 4 7
24 25 6 4 4 5 3 3 3 2 3 8 16 17 8 13 9 9 7 4 3 4 5 5 3 9 5 6 6 6 6 6 6 4 5 1 9 8 10 13 8 8 7 7 8
21 2 2 4 7 4 1 2 2 5 2 8 15 6 6 4 8 7 5 5 5 4 6 5 3 5 9 4 6 3 3 5 1 2 3 6 8 9 8 9 8 5 4 10 3
3 3 4 5 4 4 2 4 4 5 9 12 5 4 7 8 6 5 9 7 5 8 1 1 5 5 4 4 4 6 5 3 3 2 5 6 6 10 4 5 8 9 9 4 4
4 3 4 6 3 1 2 3 3 8 12 2 5 7 10 7 7 7 11 6 10 9 7 1 3 2 2 5 7 4 5 4 2 4 3 5 7 5 6 2 4 7 4 3 8
2 4 5 5 3 2 3 3 5 4 9 6 4 8 12 6 8 4 9 2 9 11 7 3 4 3 8 6 8 5 6 6 5 5 4 3 9 12 17 14 9 16 18 20 14
3 1 1 2 2 1 3 3 5 4 3 3 1 4 14 5 6 2 5 5 8 7 12 6 1 2 1 4 1 5 6 8 4 2 8 4 9 5 15 22 24 22 18 19 14
3 2 2 2 2 1 1 2 4 6 4 5 12 14 7 1 5 7 5 4 4 4 8 6 4 6 6 3 3 3 3 6 10 4 8 16 24 26 24 23 23 19 18 19 15
1 1 1 2 2 2 2 5 7 6 6 5 8 9 6 5 6 5 7 3 5 2 4 4 2 1 5 6 4 7 9 9 11 16 11 24 22 26 26 19 22 15 8 8 8
2 3 4 4 4 5 6 4 6 5 6 7 9 12 10 5 2 8 7 4 5 1 3 2 2 3 6 9 10 10 13 13 15 18 20 23 26 20 16 16 13 5 7 12 7
2 2 2 4 3 1 3 2 3 2 8 6 5 7 10 3 5 4 4 3 7 7 6 5 3 2 5 5 6 5 8 13 6 5 6 10 15 15 18 13 8 11 13 11 12
Wind_Direction
345 342 340 336 329 332 332 335 331 257 258 262 268 277 284 294 304 267 225 219 215 242 229 257 206 231 267 253 230 149 177 208 220 230 253 296 320 315 217 124 101 26 135 172 161
335 335 335 338 333 324 325 327 325 328 248 248 253 265 280 299 278 255 230 216 237 223 183 217 207 207 216 217 255 164 202 224 220 235 265 274 39 303 139 147 32 71 29 133 140
330 329 325 329 331 327 320 324 320 322 300 239 246 254 273 304 262 248 214 222 210 184 184 215 266 206 200 235 237 201 188 226 268 266 353 320 318 342 357 186 214 193 177 252 167
323 320 323 326 323 324 318 311 312 311 316 241 231 244 264 251 219 284 278 200 196 169 170 216 241 226 180 213 231 247 234 232 260 273 272 286 309 331 115 277 315 230 195 160 261
314 315 317 319 321 317 314 311 304 308 308 270 220 226 210 213 247 249 3 188 179 172 201 213 213 196 182 197 242 230 240 248 253 289 280 270 262 252 289 303 306 316 346 301 264
311 323 320 316 317 315 311 307 305 303 307 312 202 194 225 233 195 164 134 118 179 182 210 210 217 207 207 240 201 257 177 296 305 309 320 271 258 225 294 297 304 307 293 226 250
323 311 315 313 314 314 306 302 305 299 300 312 193 177 231 231 157 134 193 183 194 192 196 208 285 169 197 243 302 106 22 342 309 283 255 342 277 233 241 257 266 275 278 285 220
319 322 311 314 318 314 307 306 299 296 291 290 190 174 246 232 241 152 225 250 238 195 201 162 30 117 102 271 28 53 43 322 247 234 234 166 256 249 237 225 249 253 253 257 274
322 317 313 312 320 319 311 306 296 285 284 285 169 170 230 150 196 172 193 201 198 146 144 132 73 345 99 109 70 209 230 227 294 238 206 180 210 242 240 242 254 247 241 240 245
329 326 320 316 316 324 323 309 282 280 277 252 80 127 246 201 165 177 201 205 165 132 97 132 137 136 111 157 197 196 228 244 234 298 220 233 253 268 277 249 256 246 240 236 233
332 326 317 325 334 335 340 340 0 206 227 151 177 245 186 157 137 171 182 146 130 126 150 177 157 180 196 193 243 272 299 274 269 327 324 265 275 265 269 263 266 263 245 249 249
324 318 325 328 325 308 310 245 284 102 312 215 225 229 114 130 126 174 178 136 136 174 146 120 182 189 194 204 232 266 275 278 297 351 26 307 290 275 256 255 240 252 245 248 252
325 325 319 316 313 300 210 210 138 83 278 192 219 208 158 143 138 179 173 130 149 162 160 143 139 206 219 276 200 236 267 291 267 339 349 342 291 256 281 243 247 247 247 246 241
325 320 319 319 295 207 255 113 126 101 255 157 222 195 149 166 111 166 196 143 151 158 156 110 172 111 131 222 144 34 33 68 48 48 258 75 290 287 269 277 251 243 240 237 237
324 321 318 313 279 220 223 122 131 83 203 148 149 135 157 177 127 198 213 339 160 143 121 229 160 137 137 208 161 179 93 72 40 13 354 283 217 276 254 272 275 294 265 241 226
325 316 313 295 195 215 168 119 100 248 235 139 140 155 125 157 84 131 143 30 83 147 134 125 81 102 185 130 80 127 69 44 43 60 312 223 179 272 231 204 206 252 324 257 204
318 316 318 256 284 131 129 138 70 249 303 131 144 144 141 136 118 154 154 141 134 112 135 83 132 133 77 126 111 94 78 7 350 216 237 134 187 249 280 273 241 261 272 163 179
316 314 290 260 110 150 107 86 135 238 61 130 134 135 125 125 131 148 143 142 271 84 105 139 318 160 186 171 173 163 161 160 217 215 275 268 237 255 236 254 269 224 224 218 193
307 357 15 14 124 71 318 48 295 345 145 126 110 113 129 120 130 146 165 159 198 180 126 123 262 151 163 154 124 194 185 187 56 302 43 247 301 309 314 354 30 13 309 271 264
64 35 39 38 72 35 7 14 332 308 116 139 86 184 131 146 121 123 165 193 193 194 150 360 110 144 149 161 229 155 172 99 4 279 280 282 258 245 337 355 9 7 335 4 153
49 39 343 335 43 38 7 23 321 313 165 178 144 120 127 141 126 151 183 167 178 189 159 165 86 91 142 196 186 178 204 203 140 173 220 288 263 235 210 104 337 335 6 300 274
50 49 314 350 48 335 304 22 359 297 268 278 125 111 146 144 143 141 184 224 181 155 166 145 114 182 214 232 199 179 194 160 133 260 248 217 267 263 272 296 327 318 318 290 252
54 92 282 10 39 11 333 8 254 310 342 95 126 90 146 132 134 179 89 356 165 151 166 148 93 49 29 8 177 196 209 199 219 41 227 261 266 257 323 314 304 302 307 294 285
82 39 307 240 217 16 49 329 302 241 22 49 106 111 116 120 116 143 107 41 56 93 134 119 150 170 183 186 101 204 221 195 189 222 266 242 277 288 289 297 302 298 304 293 276
15 256 235 324 70 300 257 2 10 35 359 19 126 154 112 86 75 96 91 86 54 102 70 95 167 288 264 252 195 220 240 240 235 248 249 278 279 288 296 307 306 300 315 319 355
28 359 348 282 134 37 18 328 3 15 18 51 78 60 68 82 216 147 133 156 185 173 110 107 259 62 289 251 236 245 244 238 242 253 255 263 275 277 286 303 330 298 310 320 340
332 295 271 289 332 123 227 254 113 45 16 40 71 87 66 38 70 83 102 114 144 140 164 153 142 87 272 312 337 275 233 214 208 206 227 261 271 300 315 322 350 338 332 304 293